WFO RAH Logo

WFO RAH Text Data
RWRRAH
NORTH CAROLINA WEATHER ROUNDUP
NATIONAL WEATHER SERVICE RALEIGH NC
300 AM EST THU JAN 17 2008

NOTE: "FAIR" INDICATES FEW OR NO CLOUDS BELOW 12,000 FEET WITH NO
SIGNIFICANT WEATHER AND/OR OBSTRUCTIONS TO VISIBILITY.

NCZ001-053-055-056-065-067-170900-
WESTERN NORTH CAROLINA
  
CITY           SKY/WX    TMP DP  RH WIND       PRES   REMARKS
ASHEVILLE      LGT SNOW  28  27  93 S5        30.10F FOG     WCI  23  
JEFFERSON      LGT SNOW  25  21  86 CALM      30.11F                  
MORGANTON      LGT SNOW  30  30 100 CALM      30.25F VSB 1            
HICKORY        LGT SNOW  31  30  96 NE6       30.20F VSB 1   WCI  25  
RUTHERFORDTON  LGT SNOW  34  32  93 N5        30.18F VSB 1   WCI  30  
MOUNT AIRY     CLOUDY    36  12  38 CALM      30.22F                  
$$
 
NCZ021-022-025-041-071-084-088-170900-
CENTRAL NORTH CAROLINA
  
CITY           SKY/WX    TMP DP  RH WIND       PRES   REMARKS
CHARLOTTE      LGT SNOW  32  30  92 NE9       30.20F FOG     WCI  24  
GREENSBORO     LGT SNOW  36  21  55 E6        30.26F WCI  31          
WINSTON-SALEM  FLURRIES  36  18  48 E7        30.26F WCI  30          
RALEIGH-DURHAM CLOUDY    38  19  46 SE5       30.30F WCI  34          
FORT BRAGG     LGT SNOW  33  32  95 NE5       30.28F FOG     WCI  29  
FAYETTEVILLE   SNOW     N/A N/A N/A MISG        N/A                   
$$
 
NCZ011-015-027-028-043-044-047-080-103-170900-
NORTHEASTERN NORTH CAROLINA
  
CITY           SKY/WX    TMP DP  RH WIND       PRES   REMARKS
ROANOKE RAPIDS CLOUDY    36  24  62 SE3       30.33F                  
ROCKY MT-WILSO CLOUDY    37  23  56 E3        30.31F                  
GREENVILLE     CLOUDY    37  28  70 CALM      30.32F                  
WASHINGTON     CLOUDY    39  28  65 E3        30.32F                  
ELIZABETH CITY CLOUDY    38  30  73 NE8       30.34F WCI  32          
MANTEO         CLOUDY    41  34  75 NE7       30.33F                  
CAPE HATTERAS  CLOUDY    42  32  67 N8        30.31F                  
$$
 
NCZ078-087-090-091-093-098-101-170900-
SOUTHEASTERN NORTH CAROLINA
  
CITY           SKY/WX    TMP DP  RH WIND       PRES   REMARKS
LUMBERTON      MIX PCPN  34  33  96 NE9       30.25F WCI  27          
KINSTON        CLOUDY    37  28  70 NE3       30.31F                  
KENANSVILLE    LGT RAIN  36  32  87 CALM      30.29F                  
NEW BERN       LGT RAIN  39  29  67 E8        30.32F WCI  33          
CHERRY POINT   LGT RAIN  39  33  79 NE12      30.30F WCI  32          
BEAUFORT       LGT RAIN  40  34  79 NE9       30.29F WCI  34          
JACKSONVILLE   LGT RAIN  37  34  89 NE10      30.28F WCI  30          
WILMINGTON     LGT RAIN  37  34  89 NE13      30.25F WCI  29          
$$